sat.trackr.live / text

‹ back to catalog

STARLINK-4024

NORAD 52599 · 2022-052B

PAYLOAD ACTIVE UNKNOWN

§ Identity

Operator
Country
US
Launch date
2022-05-14
Launch site
AFETR
Launch vehicle
Mass (kg)
RCS (m²)

Purposes: comms

External: N2YO · Heavens-Above · Gunter

§ Orbital elements

Epoch: 2026-09-19T21:49:42.159072Z

Period
94.01 min
Inclination
53.1588°
Eccentricity
0.0001257
Mean motion
15.31695776 rev/d
Perigee alt
469.9 km
Apogee alt
471.6 km
Semi-major
6,848.9 km
B*
1.7977e-5
RAAN
112.0932°
Arg perigee
89.7614°
Mean anomaly
270.3531°
Rev number
24,118

§ Raw data

STARLINK-40241 52599U 22052B   26262.90951573  .00000193  00000+0  17977-4 0  99952 52599  53.1588 112.0932 0001257  89.7614 270.3531 15.31695776241187

JSON: /api/v1/satellites/52599 · /tle

For live sub-satellite position, see the globe view (requires WebGL).

§ Visibility from observer

Set your observer location to see the next 7 days of passes ≥ 10°. The values pass through the URL so the page stays shareable.

No JS? Fill the form by hand. The geolocation button needs JavaScript.